Location: Carrières
(48.9495°N, 2.0407°E)
Time: 13:24:02
(UTC+00:00)

Tiros 1 - Pass Details

Date: 23 April 2024
Orbit: 624 x 657 km, 48.4° (Epoch: 24 May)

Event Time Altitude Azimuth Distance (km) Brightness Sun altitude
Rises 04:41:40 0° 283° (WNW) 2,913 10.0 -1.3°
Reaches altitude 10° 04:44:17 10° 270° (W) 1,999 9.1 -0.9°
Maximum altitude 04:48:03 25° 215° (SW) 1,248 8.2 -0.3°
Drops below altitude 10° 04:51:48 10° 160° (SSE) 1,987 9.7 0.3°
Sets 04:54:24 0° 147° (SSE) 2,891 10.7 0.7°
